Birmingham, AL

12:28 PM CDT on September 26, 2017 (GMT -0500)
Birmingham International

Weather History for KBHM - November, 2014

Change the Weather History Date:

Thursday, November 6, 2014

  Actual Average Record
Temperature  
Mean Temperature 59 °F 58 °F  
Max Temperature 71 °F 69 °F 82 °F (1938)
Min Temperature 46 °F 46 °F 24 °F (1976)
Degree Days  
Heating Degree Days 6 8  
Month to date heating degree days 68 46  
Since 1 July heating degree days 155 173  
Growing Degree Days 8 (Base 50)    
Moisture  
Dew Point 51 °F    
Average Humidity 65    
Maximum Humidity 93    
Minimum Humidity 36    
Precipitation  
Precipitation 0.11 in 0.13 in 1.57 in (1989)
Month to date precipitation 0.11 0.81  
Year to date precipitation 38.27 45.23  
Snow  
Snow 0.00 in 0.00 in - ()
Month to date snowfall 0.0 0.0  
Since 1 July snowfall 0.0 0.0  
Since 1 September snowfall 0.0 0.0  
Snow Depth 0.00 in    
Sea Level Pressure  
Sea Level Pressure 30.12 in    
Wind  
Wind Speed 11 mph (WNW)    
Max Wind Speed 21 mph    
Max Gust Speed 27 mph    
Visibility 8 miles    
Events Rain    
T = Trace of Precipitation, MM = Missing Value Source: NWS Daily Summary

Daily Weather History Graph

Daily Weather History Graph

Search for Another Location

Airport or City:

Trip Planner

Search our weather history database for the weather conditions in past years. The results will help you decide how hot, cold, wet, or windy it might be!

Date:

Astronomy

Nov. 06, 2014 Rise Set
Actual Time 6:10 AM CST 4:50 PM CST
Civil Twilight 5:44 AM CST 5:16 PM CST
Nautical Twilight 5:14 AM CST 5:46 PM CST
Astronomical Twilight 4:45 AM CST 6:15 PM CST
Moon 4:56 PM CST (11/6) 5:43 AM CST (11/6)
Length of Visible Light 11h 32m
Length of Day
10h 40m
Full, 100% of the Moon is Illuminated
Nov 6
Full
Nov 6
Full
Nov 14
Last Quarter
Nov 22
New
Nov 29
First Quarter

Hourly Weather History & Observations

Time (CST) Temp. Dew Point Humidity Pressure Visibility Wind Dir Wind Speed Gust Speed Precip Events Conditions
12:53 AM 64.9 °F 55.9 °F 73% 30.13 in 10.0 mi SSW 8.1 mph - N/A   Overcast
1:53 AM 66.0 °F 55.9 °F 70% 30.11 in 10.0 mi SW 10.4 mph - N/A   Overcast
2:53 AM 64.9 °F 57.0 °F 75% 30.10 in 10.0 mi SSW 10.4 mph - N/A   Overcast
3:53 AM 64.9 °F 59.0 °F 81% 30.10 in 10.0 mi SW 11.5 mph - 0.00 in   Overcast
4:00 AM 64.9 °F 59.0 °F 81% 30.11 in 10.0 mi SW 11.5 mph - N/A   Overcast
4:38 AM 62.1 °F 60.1 °F 93% 30.13 in 2.5 mi NW 8.1 mph - 0.09 in Rain Light Rain
4:45 AM 62.1 °F 60.1 °F 93% 30.13 in 5.0 mi WNW 8.1 mph - 0.10 in Rain Light Rain
4:53 AM 62.1 °F 60.1 °F 93% 30.12 in 5.0 mi WNW 5.8 mph - 0.10 in Rain Light Rain
5:19 AM 61.0 °F 60.1 °F 97% 30.13 in 9.0 mi West 5.8 mph - 0.00 in   Overcast
5:53 AM 61.0 °F 60.1 °F 97% 30.12 in 5.0 mi West 5.8 mph - 0.01 in   Overcast
6:53 AM 62.1 °F 60.1 °F 93% 30.12 in 7.0 mi West 6.9 mph - N/A   Overcast
7:34 AM 62.1 °F 60.1 °F 93% 30.14 in 3.0 mi NW 5.8 mph - N/A   Overcast
7:43 AM 62.1 °F 59.0 °F 90% 30.15 in 3.0 mi WNW 10.4 mph - N/A   Overcast
7:53 AM 62.1 °F 59.0 °F 90% 30.14 in 3.0 mi WNW 8.1 mph - N/A   Overcast
8:53 AM 60.1 °F 57.0 °F 90% 30.16 in 7.0 mi NW 13.8 mph - N/A   Mostly Cloudy
9:00 AM 60.1 °F 57.0 °F 90% 30.17 in 10.0 mi WNW 9.2 mph - N/A   Mostly Cloudy
9:33 AM 63.0 °F 55.9 °F 78% 30.15 in 10.0 mi West 9.2 mph - N/A   Scattered Clouds
9:45 AM 62.1 °F 55.0 °F 78% 30.15 in 10.0 mi WNW 10.4 mph - N/A   Mostly Cloudy
9:53 AM 62.1 °F 55.0 °F 78% 30.15 in 10.0 mi WNW 13.8 mph - N/A   Mostly Cloudy
10:53 AM 66.0 °F 52.0 °F 60% 30.12 in 10.0 mi WNW 11.5 mph - N/A   Mostly Cloudy
11:53 AM 69.1 °F 44.1 °F 40% 30.09 in 10.0 mi WNW 11.5 mph - N/A   Partly Cloudy
12:53 PM 70.0 °F 45.0 °F 41% 30.06 in 10.0 mi West 12.7 mph - N/A   Partly Cloudy
1:53 PM 71.1 °F 44.1 °F 38% 30.04 in 10.0 mi WNW 15.0 mph 26.5 mph N/A   Partly Cloudy
2:53 PM 69.1 °F 43.0 °F 39% 30.04 in 10.0 mi WNW 10.4 mph 24.2 mph N/A   Partly Cloudy
4:53 PM 63.0 °F 35.1 °F 35% 30.07 in 10.0 mi NW 11.5 mph - N/A   Clear
5:53 PM 59.0 °F 36.0 °F 42% 30.07 in 10.0 mi NW 8.1 mph - N/A   Clear
6:53 PM 57.0 °F 34.0 °F 42% 30.11 in 10.0 mi NNW 15.0 mph - N/A   Clear
7:53 PM 55.0 °F 36.0 °F 49% 30.13 in 10.0 mi NNW 11.5 mph - N/A   Clear
8:53 PM 53.1 °F 37.0 °F 55% 30.14 in 10.0 mi NNW 13.8 mph - N/A   Clear
9:53 PM 51.1 °F 37.0 °F 59% 30.16 in 10.0 mi NNW 13.8 mph - N/A   Clear
10:53 PM 46.9 °F 36.0 °F 66% 30.14 in 10.0 mi NNW 9.2 mph - N/A   Clear
11:53 PM 46.9 °F 34.0 °F 61% 30.14 in 10.0 mi North 15.0 mph - N/A   Clear